Flag for Brazil Weather past 2 weeks in Rio de Janeiro, Rio de Janeiro, Brazil

Now
84 °F

Scattered clouds.


Feels Like: 88 °F
Forecast: 74 / 89 °F
Wind: 12 mph from South

Location: Rio De Janeiro Airport

Current Time: Oct 1, 2014 at 11:43:57 AM

Latest Report: Oct 1, 2014 at 11:00 AM


Visibility: 4 mi

Pressure: 29.95 "Hg

Humidity: 62%

Dew point: 70 °F

Location of Rio de JaneiroLocation

Historic Weather in Rio de Janeiro — Graph

°F

Rio de Janeiro temperature yesterday

Maximum temperature yesterday: 86 °F (at 11:00 AM)
Minimum temperature yesterday: 72 °F (at 6:00 AM)
Average temperature yesterday: 77 °F

Past Weeks' High & Low Weather Summary

 TemperatureHumidityPressure
High90 °F (Sep 24, 2:00 PM)100% (Sep 28, 6:00 AM)30.18 "Hg (Sep 28, 6:00 AM)
Low64 °F (Sep 23, 6:00 AM)29% (Sep 24, 2:00 PM)29.80 "Hg (Sep 26, 1:00 PM)
Average75 °F77%29.99 "Hg
* Reported Sep 16 10:00 AM — Oct 1 10:00 AM, Rio de Janeiro, Weather by CustomWeather, © 2014

Note: Actual official high and low records may vary slightly from our data, if they occured in-between our weather recording intervals... More about our weather records

Advertising

Rio de Janeiro weather history for previous 24 hours

 ConditionsComfort  
Time TempWeatherWind HumidityBarometerVisibility
10:00 AM
Oct 1
84 °FPartly sunny.15 mph62%29.95 "Hg4 mi
9:00 AM77 °FFog.5 mph83%29.92 "Hg3 mi
8:00 AM79 °FFog.6 mph79%29.89 "Hg3 mi
7:00 AM75 °FFog.5 mph83%29.89 "Hg3 mi
6:00 AM73 °FPartly sunny.2 mph94%29.89 "Hg6 mi
11:00 PM
Sep 30
73 °FPartly cloudy.3 mph89%29.92 "HgN/A
10:00 PM73 °FPartly cloudy.3 mph89%29.98 "HgN/A
9:00 PM73 °FPartly cloudy.5 mph89%29.95 "HgN/A
8:00 PM75 °FPartly cloudy.12 mph83%29.95 "HgN/A
7:00 PM73 °FPartly cloudy.9 mph89%29.92 "HgN/A
6:00 PM73 °FPartly cloudy.10 mph89%29.92 "HgN/A
5:00 PM77 °FPartly cloudy.13 mph74%29.92 "HgN/A
4:00 PM75 °FPartly sunny.12 mph83%29.92 "HgN/A
3:00 PM79 °FBroken clouds.15 mph74%29.86 "HgN/A
2:00 PM82 °FBroken clouds.12 mph62%29.86 "HgN/A
1:00 PM86 °FPartly sunny.7 mph52%29.86 "HgN/A
12:00 PM86 °FScattered clouds.6 mph49%29.89 "HgN/A
11:00 AM86 °FScattered clouds.7 mph52%29.92 "Hg6 mi
Weather by CustomWeather, © 2014

See weather overviewHow to use our weather pages